Location: Carrières
(48.9495°N, 2.0407°E)
Time: 11:34:48
(UTC+00:00)

Transit 2A Rocket - Pass Details

Date: 30 April 2024
Orbit: 584 x 909 km, 66.7° (Epoch: 25 May)

Event Time Altitude Azimuth Distance (km) Brightness Sun altitude
Rises 14:34:52 0° 321° (NW) 3,207 8.3 42.1°
Reaches altitude 10° 14:38:18 10° 345° (NNW) 2,353 7.5 41.7°
Maximum altitude 14:41:23 15° 20° (NNE) 2,079 7.1 41.2°
Drops below altitude 10° 14:44:33 10° 54° (NE) 2,467 7.3 40.8°
Sets 14:48:18 0° 77° (ENE) 3,458 7.9 40.2°
